Weather History for Joplin, MO

Change the Weather History Date:

Saturday, July 13, 2013

  Actual Average Record
Temperature  
Mean Temperature 80 °F 80 °F  
Max Temperature 93 °F 91 °F 113 °F (1954)
Min Temperature 67 °F 70 °F 50 °F (1975)
Degree Days  
Heating Degree Days 0 0  
Month to date heating degree days 0 0  
Since 1 June heating degree days 12 5  
Since 1 July heating degree days 0 0  
Cooling Degree Days 15 15  
Month to date cooling degree days 175 191  
Year to date cooling degree days 642 689  
Since 1 June cooling degree days 498 509  
Growing Degree Days 30 (Base 50)    
Moisture  
Dew Point 57 °F    
Average Humidity 49    
Maximum Humidity 59    
Minimum Humidity 38    
Precipitation  
Precipitation 0.00 in 0.13 in 2.81 in (2010)
Month to date precipitation 0.09 1.81  
Year to date precipitation 27.87 25.62  
Snow  
Snow 0.00 in - - ()
Month to date snowfall 0.0  
Since 1 June snowfall 0.0  
Snow Depth 0.00 in    
Sea Level Pressure  
Sea Level Pressure 29.99 in    
Wind  
Wind Speed 7 mph (SE)    
Max Wind Speed 17 mph    
Max Gust Speed -    
Visibility 10 miles    
Events      
T = Trace of Precipitation, MM = Missing Value Source: NWS Daily Summary

Daily Weather History Graph

Daily Weather History Graph

Search for Another Location

Airport:

Trip Planner

Search our weather history database for the weather conditions in past years. The results will help you decide how hot, cold, wet, or windy it might be!

Date:

Astronomy

Jul. 13, 2013 Rise Set
Actual Time 6:08 AM CDT 8:38 PM CDT
Civil Twilight 5:38 AM CDT 9:08 PM CDT
Nautical Twilight 5:00 AM CDT 9:46 PM CDT
Astronomical Twilight 4:19 AM CDT 10:27 PM CDT
Moon 11:17 AM CDT (7/13) 11:28 PM CDT (7/13)
Length of Visible Light 15h 30m
Length of Day
14h 30m
Waxing Crescent, 26% of the Moon is Illuminated
Jul 13
Waxing Crescent
Jul 15
First Quarter
Jul 22
Full
Jul 29
Last Quarter
Aug 6
New

Hourly Weather History & Observations

Time (CDT) Temp. Heat Index Dew Point Humidity Pressure Visibility Wind Dir Wind Speed Gust Speed Precip Events Conditions
12:53 AM 75.0 °F - 53.1 °F 46% 29.99 in 10.0 mi SE 6.9 mph - N/A   Clear
1:53 AM 73.9 °F - 53.1 °F 48% 29.99 in 10.0 mi SE 5.8 mph - N/A   Clear
2:53 AM 72.0 °F - 52.0 °F 49% 29.99 in 10.0 mi SE 6.9 mph - N/A   Clear
3:53 AM 70.0 °F - 52.0 °F 53% 30.00 in 10.0 mi ESE 6.9 mph - N/A   Clear
4:53 AM 70.0 °F - 52.0 °F 53% 29.99 in 10.0 mi SE 6.9 mph - N/A   Clear
5:53 AM 69.1 °F - 52.0 °F 54% 30.00 in 10.0 mi SSE 9.2 mph - N/A   Clear
6:53 AM 68.0 °F - 53.1 °F 59% 30.01 in 10.0 mi SSE 5.8 mph - N/A   Clear
7:53 AM 73.0 °F - 54.0 °F 51% 30.01 in 10.0 mi SSE 8.1 mph - N/A   Clear
8:53 AM 77.0 °F - 55.9 °F 48% 30.03 in 10.0 mi SSE 9.2 mph - N/A   Clear
9:53 AM 80.1 °F 80.4 °F 57.0 °F 45% 30.03 in 10.0 mi SE 9.2 mph - N/A   Clear
10:53 AM 82.9 °F 82.6 °F 57.9 °F 42% 30.03 in 10.0 mi SSE 6.9 mph - N/A   Clear
11:53 AM 87.1 °F 86.5 °F 59.0 °F 39% 30.03 in 10.0 mi Variable 4.6 mph - N/A   Clear
12:53 PM 88.0 °F 87.6 °F 60.1 °F 39% 30.01 in 10.0 mi Variable 3.5 mph - N/A   Clear
1:53 PM 91.9 °F 92.5 °F 62.1 °F 37% 29.99 in 10.0 mi SW 4.6 mph - N/A   Clear
2:53 PM 91.0 °F 91.5 °F 62.1 °F 38% 29.97 in 10.0 mi Calm Calm - N/A   Scattered Clouds
3:53 PM 91.9 °F 93.3 °F 64.0 °F 39% 29.96 in 10.0 mi ENE 9.2 mph - N/A   Scattered Clouds
4:53 PM 89.1 °F 90.3 °F 64.0 °F 43% 29.96 in 10.0 mi ENE 6.9 mph - N/A   Clear
5:53 PM 86.0 °F 86.3 °F 62.1 °F 44% 29.96 in 10.0 mi ESE 9.2 mph - N/A   Scattered Clouds
7:53 PM 81.0 °F 81.3 °F 59.0 °F 47% 29.96 in 10.0 mi ESE 9.2 mph - N/A   Clear
8:53 PM 80.1 °F 80.9 °F 60.1 °F 50% 29.95 in 10.0 mi East 6.9 mph - N/A   Clear
9:53 PM 78.1 °F - 57.9 °F 50% 29.95 in 10.0 mi ESE 6.9 mph - N/A   Clear
10:53 PM 78.1 °F - 57.0 °F 48% 29.97 in 10.0 mi East 8.1 mph - N/A   Clear
11:53 PM 75.9 °F - 57.9 °F 54% 29.98 in 10.0 mi East 10.4 mph - N/A   Clear